Temp
6 6 6 6 7 7 7 7 7 8 8 12 13 14 14 14 15 15 11 11 12 14 15 17 18 18 18 13 13 13 11 13 15 15 15 14 15 14 13 14 15 14 14 12 12
6 6 6 6 6 7 7 7 7 8 9 12 13 14 14 14 14 12 12 13 14 15 16 15 14 15 12 13 12 11 11 15 14 14 15 14 14 13 14 12 13 14 13 12 11
6 5 6 6 6 6 6 7 8 10 8 13 13 14 14 14 13 11 13 14 14 15 16 15 15 15 13 13 12 13 12 14 14 14 15 14 14 13 13 14 13 12 11 10 9
6 6 5 5 6 6 6 7 10 12 10 13 13 14 15 15 17 12 13 14 15 16 16 15 13 14 12 13 12 13 13 14 14 13 14 14 14 13 12 13 11 10 9 8 6
6 6 6 5 6 6 7 9 10 12 12 13 13 14 15 10 10 12 13 14 15 16 13 13 12 13 13 13 13 13 13 13 12 12 13 14 13 13 12 11 9 9 7 5 5
6 6 6 6 5 6 9 10 12 12 12 13 14 14 14 12 12 12 13 14 14 14 13 12 12 12 12 12 12 12 12 12 11 12 12 14 13 14 13 10 9 8 5 4 5
6 6 6 7 8 8 10 10 11 12 12 12 13 15 10 10 12 12 13 13 13 13 12 13 13 13 13 12 12 12 13 12 10 11 13 11 13 13 11 10 10 7 4 5 5
6 6 7 7 9 10 10 10 11 11 12 13 13 14 9 12 12 13 13 13 13 14 13 13 14 11 11 11 10 11 10 11 12 10 13 13 14 13 10 8 7 5 4 4 4
6 6 7 7 9 10 10 11 11 12 12 13 14 13 11 12 12 12 12 12 13 14 14 14 12 9 9 10 10 8 11 12 13 10 10 12 13 12 8 6 5 3 4 4 4
6 6 7 8 10 10 11 11 12 12 13 13 13 13 11 10 11 12 12 13 12 12 12 10 7 8 7 9 13 12 10 11 12 10 9 10 10 8 6 5 3 3 3 3 3
6 6 7 8 10 10 11 11 11 10 10 8 9 10 10 11 12 12 12 12 12 10 10 9 8 9 10 10 10 10 10 11 10 10 10 9 8 8 6 5 4 4 4 3 4
6 6 6 7 9 10 11 10 10 11 8 9 10 10 10 10 11 10 12 12 11 10 11 9 9 10 10 10 9 10 10 10 10 9 10 8 9 8 7 6 5 5 4 4 3
6 6 7 7 9 10 10 10 10 10 9 9 9 10 10 11 9 9 10 11 10 10 9 10 10 10 11 10 10 9 9 9 10 8 8 7 10 8 8 7 6 5 4 4 3
5 6 7 8 9 9 9 10 10 11 9 10 9 10 10 10 9 10 10 11 10 9 9 9 10 10 10 10 10 10 9 9 9 8 8 6 6 10 8 6 5 4 3 3 3
6 6 6 7 9 8 9 10 10 10 10 10 9 10 10 10 9 10 10 10 10 9 10 9 10 10 10 10 10 10 9 8 9 6 7 7 5 8 8 6 5 4 2 2 2
6 6 6 7 8 8 9 10 10 9 11 7 9 9 9 9 9 9 10 9 9 9 8 9 9 9 9 9 9 8 7 6 5 5 1 7 6 7 6 7 5 3 2 1 1
6 6 6 7 8 9 9 9 7 10 9 8 8 8 9 8 9 9 9 9 9 9 10 9 8 9 9 10 9 9 7 2 3 1 2 5 6 7 5 5 5 4 2 1 1
6 5 6 7 8 8 9 6 7 6 6 7 7 8 9 8 8 8 8 8 8 8 7 8 8 9 9 9 10 7 7 3 4 3 3 5 4 6 4 3 3 3 2 1 0
4 5 5 6 7 7 5 3 8 8 7 7 7 6 6 8 8 8 7 7 7 6 10 8 8 7 7 8 8 8 4 6 -2 -6 -0 3 6 5 3 3 2 1 1 -0 -1
5 4 4 5 6 8 2 7 6 9 7 8 10 6 6 4 7 7 7 7 8 7 7 8 7 7 7 7 7 8 5 4 -1 2 0 2 3 6 4 4 2 0 -0 -1 -1
6 3 3 4 6 2 2 4 7 8 8 8 8 4 6 5 6 5 8 8 7 6 7 6 7 6 7 6 6 4 2 3 3 2 0 -1 3 4 3 2 2 1 -0 -2 -2
4 2 2 3 1 -6 -1 4 7 6 7 8 7 6 5 5 4 6 7 7 5 5 7 7 4 2 6 5 4 6 5 4 1 2 -0 -0 2 4 1 1 1 1 -1 -1 -2
2 0 1 1 -0 -1 -2 6 6 5 6 6 7 8 5 4 8 4 6 4 5 6 5 5 2 -1 3 4 5 5 5 2 -3 -3 -0 -1 2 2 1 1 -0 -1 -2 -3 -2
2 1 -1 1 -0 1 1 4 5 5 5 6 6 5 4 3 3 3 5 4 4 5 6 5 -1 2 6 7 3 5 4 2 -0 -3 -2 1 -1 1 1 -1 -2 -3 -3 -4 -4
3 2 1 1 2 1 5 4 7 5 5 5 5 6 6 4 3 3 3 3 4 4 2 3 2 -2 -3 1 3 5 4 2 0 2 3 2 0 -2 -4 -7 -8 -4 -3 -3 -4
4 2 -1 -4 3 3 5 3 7 5 5 5 4 6 6 6 8 4 2 1 4 1 1 -0 1 -0 -2 -1 -1 0 2 1 2 -3 -2 -1 1 0 -2 -4 -6 -6 -5 -5 -7
0 0 5 4 3 4 7 6 8 7 5 5 6 4 4 4 2 1 -0 -0 1 2 1 2 -1 1 0 -2 -3 0 3 2 -0 -4 1 0 3 -2 -5 -3 -9 -7 -8 -9 -10
Height
829 829 828 826 824 822 820 819 817 816 817 814 815 814 813 814 814 813 818 824 820 815 812 808 806 805 804 811 816 821 847 857 850 848 849 848 847 846 847 848 846 848 850 853 851
827 828 828 826 823 823 820 818 817 817 817 816 815 815 816 815 816 817 826 823 820 816 813 810 811 809 817 819 822 833 855 847 848 848 848 849 850 852 849 853 852 850 850 851 850
826 827 827 828 823 821 821 817 817 816 818 816 816 816 815 815 818 827 825 823 821 818 815 813 812 813 824 827 835 836 850 848 849 848 848 850 851 852 852 853 854 855 854 853 852
827 825 826 828 823 822 820 819 817 817 818 818 816 817 815 815 825 828 826 823 822 818 816 816 815 822 833 836 838 845 847 847 848 850 848 851 851 854 856 858 857 857 857 858 858
826 826 825 827 822 822 820 820 818 818 818 819 817 817 816 822 834 829 826 824 822 821 819 820 824 827 837 839 840 845 849 850 853 851 852 851 855 856 859 860 858 859 859 861 862
824 825 826 823 822 821 820 821 820 818 819 820 818 817 818 829 832 831 828 826 824 824 824 823 828 829 837 844 846 850 853 855 856 855 856 853 855 853 858 859 859 860 864 865 864
824 823 823 821 820 821 820 821 821 821 821 821 820 817 822 836 832 831 830 829 827 827 827 828 828 830 837 846 850 853 855 857 862 859 857 859 859 859 861 859 860 863 867 866 868
822 823 822 820 820 821 821 821 822 822 823 821 820 820 832 833 833 831 831 831 830 830 830 830 829 834 842 848 854 858 865 869 864 863 856 854 862 859 863 865 866 868 869 868 869
821 822 821 820 820 821 821 822 822 823 822 822 822 822 836 834 834 833 833 833 832 831 831 831 831 846 850 856 863 872 872 869 864 871 870 863 864 865 870 870 873 876 875 872 870
820 821 821 820 820 822 822 823 822 823 824 824 824 827 836 839 836 835 834 834 835 834 835 836 847 857 867 865 861 863 874 872 869 876 873 873 871 875 877 876 882 880 878 875 873
819 821 822 820 820 822 823 824 827 829 828 838 837 837 839 838 838 837 835 836 837 840 848 850 860 869 863 862 866 870 872 871 874 876 875 880 883 879 882 881 882 882 880 878 876
817 819 821 823 822 822 822 821 823 827 839 838 837 838 839 839 840 839 837 840 842 851 849 857 864 861 864 865 869 869 873 875 878 879 876 882 879 882 884 883 883 883 882 882 880
816 817 818 821 824 824 822 823 824 825 835 841 840 840 841 841 845 844 841 842 847 854 859 855 863 860 862 867 870 875 876 877 874 882 884 887 876 884 882 882 884 885 885 883 881
814 818 819 819 827 825 824 822 824 826 846 842 842 841 843 841 847 845 844 846 850 858 861 864 863 862 865 868 869 870 875 878 879 882 888 893 909 877 885 887 888 891 889 885 883
812 813 817 821 819 824 825 823 825 827 859 845 843 843 843 844 849 846 846 845 852 856 857 866 864 864 866 869 869 872 877 881 882 894 893 894 914 882 882 890 894 895 893 889 886
808 811 817 821 818 822 823 825 826 849 849 850 845 845 847 847 849 848 848 847 853 858 865 867 866 867 867 872 871 876 883 891 900 901 944 898 903 892 891 890 895 898 897 893 888
806 809 815 816 818 820 824 827 857 849 847 848 849 847 847 851 851 850 850 854 858 866 864 868 871 869 868 869 871 875 885 934 927 946 937 908 904 888 890 893 895 900 899 895 889
803 806 812 814 815 820 822 843 860 850 852 846 847 849 848 850 853 853 855 857 858 859 872 873 877 870 870 871 869 879 886 923 932 936 926 909 914 886 895 896 897 898 897 894 890
800 804 810 815 814 820 826 867 839 831 831 841 847 858 857 851 852 851 858 859 855 860 854 870 872 874 874 874 877 879 905 895 950 987 952 918 894 893 893 894 896 897 895 891 889
795 803 808 814 815 819 840 833 832 818 826 829 821 844 853 865 853 855 857 849 848 855 856 861 880 876 876 876 881 878 891 908 937 940 955 926 911 880 887 890 895 896 893 893 891
793 801 806 814 818 825 843 833 821 816 816 822 827 853 845 851 848 858 850 847 848 855 856 861 866 883 876 881 884 895 907 909 909 921 948 956 907 879 882 890 892 894 894 893 891
787 807 806 810 827 844 840 816 807 815 817 819 823 831 842 848 853 850 841 848 849 850 854 856 875 902 880 883 884 880 885 895 925 926 935 939 906 878 885 889 891 892 894 892 890
783 800 805 810 824 832 826 806 804 812 813 821 822 821 834 844 837 849 842 854 852 851 854 858 887 924 899 890 884 881 882 894 924 931 926 944 901 884 885 887 891 892 892 891 889
770 797 810 809 800 805 815 807 807 806 808 811 819 826 835 846 849 853 847 853 855 852 850 854 891 882 865 860 878 878 879 890 904 934 927 898 906 888 885 890 891 892 892 889 890
742 760 765 787 791 796 787 794 792 807 808 808 817 815 818 840 847 847 853 855 856 856 861 863 877 898 905 887 875 869 872 888 896 885 885 878 886 886 893 898 900 893 889 888 891
724 739 759 779 766 786 781 783 780 796 796 803 807 803 808 816 809 840 848 859 849 864 865 872 882 888 901 895 895 891 877 883 879 903 897 889 874 869 879 886 893 892 889 890 895
711 725 719 746 764 771 750 756 755 772 788 785 789 805 816 821 824 833 844 848 846 848 862 865 883 884 895 906 908 892 857 863 875 887 869 882 856 871 883 882 894 889 891 893 894
Wind_Speed
3 4 4 5 8 8 9 8 10 9 9 7 8 10 14 13 9 12 12 14 14 18 14 6 12 10 10 5 6 2 5 3 2 3 2 4 5 3 3 4 4 4 4 3 13
2 4 5 6 6 8 8 8 9 9 8 5 7 8 6 7 12 20 15 15 14 15 10 12 7 9 5 5 4 5 4 2 0 3 2 2 4 4 5 6 5 3 6 11 19
1 4 5 6 7 8 9 8 8 8 9 4 5 4 3 4 4 6 18 15 14 14 7 7 4 4 6 5 6 3 4 4 3 2 2 2 3 3 4 5 3 4 7 12 18
2 3 4 6 7 8 8 8 7 7 6 5 5 3 5 3 2 8 16 15 13 12 7 9 6 5 5 5 4 6 4 2 2 4 2 3 2 4 4 4 4 5 6 10 18
1 3 4 6 7 8 8 7 7 6 6 5 4 3 3 7 3 11 13 13 8 8 15 4 6 3 5 4 4 5 2 4 4 5 4 2 4 2 5 6 9 9 14 11 14
2 2 4 5 7 7 7 6 5 6 6 4 3 4 3 6 4 10 11 11 14 12 13 9 3 3 6 4 5 3 4 3 6 4 4 4 3 2 3 4 7 8 9 10 15
3 2 3 5 5 6 5 5 6 6 6 5 6 7 10 3 4 9 9 13 13 10 4 8 4 5 2 4 2 3 5 5 9 7 3 2 5 3 3 4 6 8 7 6 14
4 3 3 4 4 3 4 5 5 5 4 5 6 4 4 3 6 9 8 8 9 9 7 8 8 7 5 4 5 5 5 4 5 9 3 4 2 2 6 8 9 8 6 8 11
6 3 3 2 2 2 4 5 5 5 4 3 4 5 2 2 4 8 10 5 6 7 9 6 6 4 5 4 4 7 4 4 2 4 5 7 3 4 10 9 9 8 7 8 8
7 4 2 1 2 4 5 5 7 5 5 5 6 4 4 2 4 4 6 7 5 3 5 8 6 5 5 4 3 3 5 2 0 6 7 7 6 6 9 11 8 7 7 7 8
8 5 3 1 5 5 8 6 4 5 12 3 0 4 1 2 5 8 7 4 4 7 4 5 7 4 3 4 4 6 5 3 2 1 4 3 6 7 7 7 8 7 7 8 8
10 7 3 2 4 6 6 5 3 5 6 7 3 4 3 2 3 8 8 4 5 3 2 6 4 3 5 6 6 4 4 1 1 3 1 5 5 4 6 4 4 5 7 8 8
12 8 5 2 2 4 4 6 8 6 5 3 2 3 2 4 2 5 4 2 5 4 4 4 5 3 3 4 5 2 5 2 1 3 2 4 4 5 3 3 7 7 5 5 6
13 9 6 6 4 5 3 8 7 3 4 1 2 2 2 2 4 3 4 2 5 4 3 5 1 3 4 3 2 3 2 3 2 2 1 4 3 1 2 8 8 9 9 7 7
16 12 8 8 6 5 5 10 6 0 2 2 1 2 2 3 3 4 3 4 4 3 3 1 2 3 4 2 1 3 3 3 2 3 3 6 4 3 1 7 6 10 10 8 8
19 14 11 8 7 6 12 11 3 6 5 1 2 1 3 2 2 1 3 6 3 5 6 2 1 2 2 2 2 5 5 5 4 2 3 3 2 3 2 2 4 6 8 9 9
21 17 15 11 4 14 14 2 5 4 4 3 3 3 2 2 2 1 2 2 4 5 1 2 2 1 2 3 1 2 4 3 5 5 4 4 3 4 5 4 2 3 6 8 8
22 19 14 11 13 18 8 5 4 3 6 2 3 3 3 4 1 2 4 2 3 3 3 5 3 1 2 1 3 3 3 5 5 2 4 3 5 4 6 6 2 2 5 6 7
27 20 10 11 18 16 5 3 9 7 8 11 3 4 3 3 4 3 4 4 6 8 5 5 1 1 4 1 2 2 3 3 7 2 4 3 5 2 6 3 4 5 4 8 9
26 12 7 15 18 7 4 7 5 3 7 3 9 4 8 5 5 6 7 3 4 5 1 6 4 1 1 1 4 1 5 3 3 2 4 4 6 5 7 2 5 7 9 8 8
17 5 11 16 12 4 5 7 6 5 5 7 5 4 2 8 7 6 4 2 4 5 3 4 4 1 2 4 6 1 1 4 4 4 4 2 6 5 7 5 2 4 5 7 7
10 2 15 22 3 0 4 8 7 6 2 2 4 5 7 5 5 5 9 3 5 8 8 3 5 3 4 2 1 2 6 5 4 5 2 3 6 3 9 7 4 2 4 5 4
6 3 2 3 5 3 3 4 7 6 7 7 7 2 3 7 3 4 4 2 2 5 7 7 1 3 6 5 0 4 5 4 5 3 6 5 6 4 6 4 2 3 4 3 6
5 4 1 4 2 8 7 6 7 1 6 5 6 5 4 2 2 6 4 2 3 1 4 5 3 6 8 4 5 6 6 5 6 4 4 8 4 7 9 3 0 3 2 5 7
3 6 7 10 10 5 9 12 12 8 2 6 2 6 9 5 3 4 3 3 3 2 3 3 5 3 2 3 2 1 5 10 9 10 7 5 9 7 6 6 4 4 4 6 7
7 6 3 3 15 16 14 11 18 6 12 7 6 16 7 8 7 7 8 4 6 2 3 1 2 2 3 4 5 3 6 8 10 3 9 3 14 6 5 6 4 4 4 5 4
7 4 4 13 10 17 18 18 26 17 3 3 13 7 4 1 7 7 7 6 3 9 6 6 6 3 4 4 4 6 14 17 6 5 9 8 11 6 3 6 5 6 5 4 2
Wind_Direction
33 13 8 22 11 16 21 18 19 19 15 67 84 84 77 64 77 67 45 342 331 348 356 355 32 29 56 61 48 87 62 84 117 143 166 352 37 11 299 5 17 36 68 22 4
51 11 357 7 19 10 13 21 17 20 16 65 109 116 66 48 56 56 4 356 355 352 10 28 10 10 45 20 30 67 83 114 190 144 115 47 46 321 31 357 12 13 32 18 15
22 11 354 352 12 15 2 21 15 32 3 86 120 108 33 24 72 353 360 2 2 360 2 18 25 49 61 23 358 53 109 150 46 83 52 40 27 2 355 37 35 347 325 16 17
314 2 359 341 10 3 7 5 26 37 34 79 103 78 49 61 100 352 359 4 4 9 35 22 28 50 70 70 350 90 59 58 72 26 39 34 340 34 30 333 328 26 44 33 25
290 349 356 343 6 360 5 11 30 56 74 88 84 50 58 53 33 356 7 11 16 26 45 36 48 81 91 90 73 69 31 35 358 32 56 68 43 53 25 15 53 61 45 35 27
202 341 337 356 1 359 13 23 52 76 84 76 64 73 66 77 21 5 13 32 38 47 44 42 72 70 83 62 67 100 60 22 15 21 47 48 339 109 27 352 40 49 52 38 30
234 310 326 352 6 9 43 51 72 79 88 58 53 82 60 139 16 20 17 31 37 47 62 46 54 70 103 87 39 82 80 38 13 348 38 313 31 47 340 13 11 43 57 36 30
239 281 331 349 12 39 76 86 90 83 69 65 59 55 92 47 43 29 29 42 53 60 65 43 75 94 63 129 35 60 58 55 345 1 328 69 260 345 356 6 0 27 38 41 24
229 256 314 342 47 97 98 101 89 82 72 64 54 73 75 49 42 29 25 19 35 61 56 65 66 77 33 78 46 16 106 58 315 47 339 46 277 324 360 24 30 52 33 26 9
221 228 267 323 115 129 123 115 100 88 63 69 67 64 19 355 358 3 33 31 36 2 17 40 51 71 34 59 173 124 107 89 37 343 3 2 318 339 7 42 49 44 23 17 13
215 227 260 267 145 144 138 126 50 1 42 78 209 98 43 16 27 27 7 3 27 48 49 11 69 99 115 59 107 111 107 151 249 88 17 358 308 348 360 39 42 30 15 11 13
209 212 247 284 153 153 156 134 147 137 92 26 50 71 72 6 56 354 12 69 54 64 348 30 95 166 117 86 96 92 112 18 306 4 58 359 311 1 20 25 35 19 9 13 359
205 206 193 186 171 169 145 133 138 124 85 8 35 61 322 31 77 337 14 81 84 53 13 114 149 107 124 93 105 52 133 161 101 9 47 337 338 21 10 50 32 16 360 15 350
201 210 198 154 173 162 151 151 150 126 75 302 357 18 351 113 48 337 14 68 44 138 110 90 350 117 103 88 114 128 141 105 123 77 119 22 246 90 17 40 24 2 359 344 346
198 191 192 186 156 172 169 155 148 103 21 37 12 354 16 108 142 355 16 31 110 112 124 165 105 93 81 103 42 133 96 100 103 95 103 353 71 249 353 29 5 354 354 351 347
199 188 192 180 160 164 152 148 117 49 257 208 8 129 77 32 35 360 48 50 120 83 40 101 45 61 123 94 68 134 92 60 55 70 44 257 123 275 54 55 1 343 350 354 349
195 187 189 175 180 158 149 119 52 142 1 230 178 166 117 147 104 94 113 114 148 109 176 26 359 5 86 89 80 100 78 353 0 14 204 342 297 242 114 88 81 308 334 335 341
182 176 183 180 161 158 140 52 116 212 205 130 124 99 185 158 50 101 110 181 229 122 126 149 300 142 9 113 175 72 139 146 209 233 266 354 246 217 144 121 111 318 316 334 338
167 163 170 180 162 166 86 93 198 199 158 150 71 110 246 201 154 137 190 211 209 180 156 145 110 4 53 29 69 190 62 150 102 54 51 249 283 237 171 79 4 328 322 1 353
152 146 164 171 162 147 81 218 221 145 125 162 171 150 172 198 161 179 180 203 183 183 155 195 104 7 95 48 42 95 144 78 6 100 282 280 279 237 200 13 343 351 9 347 344
144 123 163 158 149 57 170 214 204 204 145 163 186 117 225 173 179 180 195 218 161 148 104 153 107 236 88 202 174 91 34 47 109 135 174 261 255 227 151 158 68 351 334 346 347
142 138 166 160 111 273 163 187 169 167 155 132 105 119 167 153 150 207 200 238 174 154 160 192 124 153 197 256 209 218 183 150 131 234 194 143 273 134 137 149 168 7 345 340 1
124 110 157 207 162 226 301 197 176 144 169 163 176 159 143 168 177 192 178 21 199 172 158 187 292 63 352 352 14 208 188 118 113 89 200 141 260 173 148 111 46 42 3 2 38
128 129 342 227 142 149 152 205 180 141 149 145 139 110 120 103 7 172 139 49 347 198 75 92 89 158 188 184 137 189 182 163 134 130 182 228 221 214 217 223 2 21 354 65 54
161 183 176 189 210 190 177 167 178 161 241 163 175 215 163 135 125 151 101 87 24 32 63 127 186 117 297 323 17 236 180 175 196 197 186 250 213 219 209 208 204 218 129 74 51
148 147 102 169 144 177 193 192 182 174 160 212 184 194 206 162 167 172 128 187 194 82 134 23 137 118 347 358 43 302 246 208 221 200 273 275 277 177 128 127 152 166 111 94 49
128 99 122 151 152 178 206 189 199 159 219 191 175 121 147 92 82 104 85 69 118 153 154 144 139 117 255 356 350 313 233 210 185 193 186 215 241 155 173 187 192 174 144 144 172